"Pseudo-MPEC" for C1CWP45

Created 2026 May 8 1:35:03 UT using Find_Orb

Click here for an explanation of pseudo-MPECs

 
 Astrometry: 
     C1CWP45*1C2026 03 18.29589810 12 54.788+35 19 36.80   ~3I7o 22.46GVNEOCPV00
     C1CWP45 1C2026 03 18.30150610 12 54.425+35 19 37.45   ~3I7o 24.10GVNEOCPV00
     C1CWP45 1C2026 03 18.30708910 12 53.939+35 19 38.10   ~3I7o 24.11GVNEOCPV00
     C1CWP45 1C2026 03 18.31267810 12 53.500+35 19 38.03   ~3I7o 23.34GVNEOCPV00
     C1CWP45 1C2026 03 18.42516610 12 45.198+35 19 48.29   ~3IAZ 23.06GVNEOCPV00
     C1CWP45 1C2026 03 18.42613610 12 45.126+35 19 48.47   ~3IAZ 23.63GVNEOCPV00
     C1CWP45 1C2026 03 18.42710410 12 45.054+35 19 48.50   ~3IAZ 24.07GVNEOCPV00
     C1CWP45 1C2026 03 18.42807210 12 44.978+35 19 48.86   ~3IAZ 23.94GVNEOCPV00
     C1CWP45  C2026 03 19.16016010 11 51.397+35 20 56.86   ~3J4o 22.9 GWNEOCPH01
     C1CWP45  C2026 03 19.17039510 11 50.647+35 20 57.72   ~3J4o 23.1 GWNEOCPH01
     C1CWP45  C2026 03 19.17707410 11 50.163+35 20 58.35   ~3J4o 23.2 GWNEOCPH01
     C1CWP45  C2026 03 19.18076510 11 49.883+35 20 58.65   ~3J4o 23.0 GWNEOCPH01
     C1CWP45 1C2026 03 20.22589810 10 33.670+35 22 26.60   ~3K6K       VNEOCPV00
     C1CWP45 1C2026 03 20.22909510 10 33.553+35 22 27.19   ~3K6K 23.54GVNEOCPV00
     C1CWP45 1C2026 03 20.23451910 10 33.120+35 22 27.50   ~3K6K       VNEOCPV00

Station data:
(H01) Magdalena Ridge Observatory, Socorro  (N33.984833 W107.189333)  US/New
   Mexico.  Observers W. H. Ryan, E. V. Ryan. Measurer W. H. Ryan. 2.4-m
   f/8.9 reflector + CCD.
(V00) Kitt Peak-Bok  (N31.963125 W111.600190)  US/Arizona. Measurers T.
   Beuden, V. F. Carvajal, D. Fay, J. B. Fazekas, D. C. Fuls, A. R. Gibbs, A.
   D. Grauer, H. Gröller, J. K. Hogan, R. A. Kowalski, S. M. Larson, G. J.
   Leonard, D. Rankin, R. L. Seaman, F. C. Shelly, K. W. Wierzchoś. 2.25-m
   reflector + 4x4K mosaic CCD.

Orbital elements:  C1CWP45
   Perihelion 2026 Jun 21.069729 +/- 662 TT =  1:40:24.5 (JD 2461212.569729)
Epoch 2026 Mar 20.0 TT = JDT 2461119.5   Ur: 0.4098              AutoNEOCP
M 358.816927185 +/- 14              (J2000 ecliptic)
n   0.012711682 +/-                 Peri.  138.093272 +/- 57
a  18.18307644 +/-                  Node   281.017708 +/- 4.3
e   0.66205946 +/- 1.14             Incl.  153.948874 +/- 1.1
P  77.53558                H 15.61  G  0.15   U 10.9
q 6.144798536 +/- 0.853    Q 30.22135436 +/- 126
From 15 observations 2026 Mar. 18-20 (46.5 hr); mean residual 0".29
Residuals in arcseconds: 
260318 V00  .02+  .20+    260318 V00  .00   .24-    260319 H01  .10+  .01+    
260318 V00  .68+  .32+    260318 V00  .00   .30-    260319 H01  .01+  .02-    
260318 V00  .19-  .44+    260318 V00  .06-  .03-    260320 V00  .81-  .17-    
260318 V00  .48-  .16-    260319 H01  .08-  .06+    260320 V00  .62+  .16+    
260318 V00  .01+  .33-    260319 H01  .01-  .01-    260320 V00  .18+  .04+    

Ephemerides (geocentric):
Date (UTC) HH   RA             Dec           delta  r     elong  mag " sig PA
---- --------  ------------   ------------  ------ ------ -----  --- --------
2026 05 08 02  09 29 17.795   +34 12 55.68  6.1260 6.1498  86.6 24.1 1093 131
2026 05 08 03  09 29 16.679   +34 12 47.59  6.1267 6.1498  86.6 24.1 1095 131
2026 05 08 04  09 29 15.566   +34 12 39.50  6.1274 6.1498  86.6 24.1 1097 131
2026 05 08 05  09 29 14.453   +34 12 31.41  6.1282 6.1498  86.5 24.1 1099 131
2026 05 08 06  09 29 13.343   +34 12 23.31  6.1289 6.1498  86.5 24.1 1101 131
2026 05 08 07  09 29 12.234   +34 12 15.21  6.1296 6.1498  86.4 24.1 1102 131
2026 05 08 08  09 29 11.126   +34 12 07.10  6.1303 6.1498  86.4 24.1 1104 131
2026 05 08 09  09 29 10.021   +34 11 58.99  6.1310 6.1497  86.3 24.1 1106 131
2026 05 08 10  09 29 08.916   +34 11 50.88  6.1318 6.1497  86.3 24.1 1108 131
2026 05 08 11  09 29 07.814   +34 11 42.76  6.1325 6.1497  86.3 24.1 1110 131
2026 05 08 12  09 29 06.713   +34 11 34.64  6.1332 6.1497  86.2 24.1 1112 131
2026 05 08 13  09 29 05.614   +34 11 26.51  6.1339 6.1497  86.2 24.1 1114 131
2026 05 08 14  09 29 04.516   +34 11 18.38  6.1347 6.1497  86.1 24.1 1116 131
2026 05 08 15  09 29 03.420   +34 11 10.25  6.1354 6.1497  86.1 24.1 1118 131
2026 05 08 16  09 29 02.325   +34 11 02.11  6.1361 6.1497  86.1 24.1 1120 131
2026 05 08 17  09 29 01.232   +34 10 53.97  6.1368 6.1497  86.0 24.1 1122 131
2026 05 08 18  09 29 00.141   +34 10 45.82  6.1375 6.1497  86.0 24.1 1124 131
2026 05 08 19  09 28 59.051   +34 10 37.67  6.1383 6.1497  85.9 24.1 1126 131
2026 05 08 20  09 28 57.963   +34 10 29.52  6.1390 6.1496  85.9 24.1 1128 131
2026 05 08 21  09 28 56.877   +34 10 21.36  6.1397 6.1496  85.9 24.1 1129 131
2026 05 08 22  09 28 55.792   +34 10 13.20  6.1404 6.1496  85.8 24.1 1131 131
2026 05 08 23  09 28 54.708   +34 10 05.04  6.1411 6.1496  85.8 24.1 1133 131
2026 05 09 00  09 28 53.627   +34 09 56.87  6.1419 6.1496  85.7 24.1 1135 131
2026 05 09 01  09 28 52.547   +34 09 48.69  6.1426 6.1496  85.7 24.1 1137 131
2026 05 09 02  09 28 51.468   +34 09 40.52  6.1433 6.1496  85.6 24.1 1139 131
2026 05 09 03  09 28 50.391   +34 09 32.34  6.1440 6.1496  85.6 24.1 1141 131
2026 05 09 04  09 28 49.316   +34 09 24.15  6.1447 6.1496  85.6 24.1 1143 131
2026 05 09 05  09 28 48.242   +34 09 15.96  6.1455 6.1496  85.5 24.1 1145 131
2026 05 09 06  09 28 47.170   +34 09 07.77  6.1462 6.1496  85.5 24.1 1147 131
2026 05 09 07  09 28 46.099   +34 08 59.58  6.1469 6.1495  85.4 24.1 1149 131
2026 05 09 08  09 28 45.031   +34 08 51.38  6.1476 6.1495  85.4 24.1 1151 131
2026 05 09 09  09 28 43.963   +34 08 43.17  6.1483 6.1495  85.4 24.1 1153 131
2026 05 09 10  09 28 42.897   +34 08 34.97  6.1491 6.1495  85.3 24.1 1155 131
2026 05 09 11  09 28 41.833   +34 08 26.75  6.1498 6.1495  85.3 24.1 1157 131
2026 05 09 12  09 28 40.771   +34 08 18.54  6.1505 6.1495  85.2 24.1 1159 131
2026 05 09 13  09 28 39.710   +34 08 10.32  6.1512 6.1495  85.2 24.1 1161 131
2026 05 09 14  09 28 38.650   +34 08 02.10  6.1519 6.1495  85.2 24.1 1163 131
2026 05 09 15  09 28 37.593   +34 07 53.87  6.1527 6.1495  85.1 24.1 1165 131
2026 05 09 16  09 28 36.536   +34 07 45.64  6.1534 6.1495  85.1 24.1 1167 131
2026 05 09 17  09 28 35.482   +34 07 37.41  6.1541 6.1495  85.0 24.1 1169 131
2026 05 09 18  09 28 34.429   +34 07 29.17  6.1548 6.1494  85.0 24.1 1171 131
2026 05 09 19  09 28 33.377   +34 07 20.93  6.1555 6.1494  84.9 24.1 1173 131
2026 05 09 20  09 28 32.328   +34 07 12.68  6.1563 6.1494  84.9 24.1 1175 131
2026 05 09 21  09 28 31.279   +34 07 04.43  6.1570 6.1494  84.9 24.1 1177 131
2026 05 09 22  09 28 30.233   +34 06 56.18  6.1577 6.1494  84.8 24.1 1179 131
2026 05 09 23  09 28 29.188   +34 06 47.93  6.1584 6.1494  84.8 24.1 1180 131
2026 05 10 00  09 28 28.144   +34 06 39.67  6.1592 6.1494  84.7 24.1 1182 131
2026 05 10 01  09 28 27.102   +34 06 31.40  6.1599 6.1494  84.7 24.1 1184 131